Home > Weather > Jalandhar > Past weeks

Flag for India Weather for the Past 2 Weeks in Jalandhar, Punjab, India

Now
61 °F

Fog.


Feels Like: 61 °F
Forecast: 46 / 73 °F
Wind: 6 mph from East

Location: Amritsar Airport

Current Time: Feb 12, 2016 at 12:03:09 PM

Latest Report: Feb 12, 2016 at 11:30 AM


Visibility: 2 mi

Pressure: 30.01 "Hg

Humidity: 88%

Dew point: 57 °F

Location of JalandharLocation

Historic Weather in Jalandhar — Graph

°F

Jalandhar Temperature Yesterday

Maximum temperature yesterday: 61 °F (at 12:00 AM)
Minimum temperature yesterday: 50 °F (at 11:00 PM)
Average temperature yesterday: 58 °F

High & Low Weather Summary for the Past Weeks

 TemperatureHumidityPressure
High72 °F (Feb 4, 1:30 PM)100% (Jan 28, 6:00 PM)30.15 "Hg (Jan 28, 6:00 PM)
Low41 °F (Feb 1, 6:00 AM)0% (Feb 10, 9:30 PM)29.65 "Hg (Feb 11, 6:30 AM)
Average58 °F86%29.99 "Hg
* Reported Jan 28 10:30 AM — Feb 12 11:00 AM, Jalandhar, Weather by CustomWeather, © 2016

Note: Actual official high and low records may vary slightly from our data, if they occured in-between our weather recording intervals... More about our weather records

Advertising

Jalandhar Weather History for the Previous 24 Hours

 ConditionsComfort  
Time TempWeatherWind HumidityBarometerVisibility
11:00 AM
Fri, Feb 12
59 °FFog.7 mph94%30.01 "Hg2 mi
10:00 AM55 °FFog.5 mph100%30.01 "Hg2 mi
9:30 AM52 °FFog.6 mph100%30.01 "Hg2 mi
9:00 AM50 °FFog.10 mph100%30.01 "Hg2 mi
8:30 AM46 °FFog.2 mph100%30.01 "Hg2 mi
7:30 AM45 °FFog.7 mph100%30.01 "Hg2 mi
7:00 AM43 °FFog.6 mph100%29.98 "Hg1 mi
6:30 AM43 °FFog.1 mph100%29.98 "Hg1 mi
6:00 AM43 °FFog.2 mph100%29.98 "Hg1 mi
5:30 AM45 °FFog.5 mph100%29.95 "Hg1 mi
4:30 AM45 °FFog.6 mph100%29.98 "Hg2 mi
2:30 AM45 °FFog.5 mph100%29.98 "Hg2 mi
2:00 AM45 °FFog.2 mph100%29.98 "Hg2 mi
1:30 AM46 °FFog.No wind100%29.98 "Hg2 mi
1:00 AM48 °FFog.No wind100%29.98 "Hg2 mi
12:30 AM48 °FFog.No wind100%30.01 "Hg2 mi
12:00 AM48 °FFog.No wind100%30.01 "Hg2 mi
11:30 PM
Thu, Feb 11
50 °FFog.No wind100%30.01 "Hg2 mi
11:00 PM50 °FFog.2 mph100%30.01 "Hg2 mi
10:30 PM52 °FFog.7 mph100%30.01 "Hg2 mi
10:00 PM52 °FFog.9 mph100%30.01 "Hg2 mi
9:30 PM52 °FFog.7 mph100%29.98 "Hg2 mi
9:00 PM54 °FFog.8 mph100%29.98 "Hg2 mi
8:30 PM54 °FFog.7 mph100%29.98 "Hg2 mi
8:00 PM54 °FFog.6 mph100%29.95 "Hg2 mi
7:30 PM54 °FFog.5 mph100%29.92 "Hg2 mi
7:00 PM55 °FFog.7 mph100%29.92 "Hg2 mi
6:30 PM55 °FFog.5 mph100%29.92 "Hg2 mi
6:00 PM59 °FFog.No wind94%29.89 "Hg1 mi
5:30 PM61 °FFog.6 mph0%29.86 "Hg1 mi
5:00 PM61 °FFog.3 mph83%29.86 "Hg1 mi
4:30 PM61 °FFog.3 mph83%29.86 "Hg1 mi
4:00 PM59 °FFog.3 mph82%29.83 "Hg1 mi
3:30 PM59 °FFog.6 mph82%29.83 "Hg1 mi
3:00 PM59 °FFog.7 mph82%29.83 "Hg1 mi
2:00 PM59 °FFog.9 mph77%29.83 "Hg1 mi
1:30 PM59 °FBroken clouds.10 mph68%29.80 "Hg1 mi
1:00 PM61 °FBroken clouds.13 mph63%29.83 "Hg1 mi
12:30 PM61 °FScattered clouds.14 mph59%29.80 "Hg2 mi
12:00 PM61 °FFog.16 mph59%29.80 "Hg2 mi
Weather by CustomWeather, © 2016

See weather overviewHow to use our weather pages